Regional Weather Roundup
Issued by NWS

Home | Current Version | Previous Version | Graphics & Text | Print | Product List | Glossary On
Versions: 1 2 3 4 5 6 7 8 9 10 11 12 13 14 15 16 17 18 19 20 21 22 23 24 25 26 27 28 29 30 31 32 33 34 35 36 37 38 39 40 41 42 43 44 45 46 47 48 49 50
000
ASUS45 KPSR 220500
RWRAZ

PRELIMINARY ARIZONA REGIONAL HOURLY WEATHER ROUNDUP
NATIONAL WEATHER SERVICE PHOENIX AZ
1000 PM MST MON JUL 21 2014

NOTE: FAIR INDICATES FEW OR NO CLOUDS BELOW 12,000 FEET WITH NO
SIGNIFICANT WEATHER AND/OR OBSTRUCTIONS TO VISIBILITY.

AZZ001>003-036-220600-
NORTHWEST ARIZONA

CITY           SKY/WX    TMP DP  RH WIND       PRES   REMARKS
KINGMAN        CLEAR     77  31  18 S10       30.10R
$$

AZZ004>008-015-016-018-220600-
NORTH CENTRAL ARIZONA

CITY           SKY/WX    TMP DP  RH WIND       PRES   REMARKS
GRAND CANYON   CLEAR     57  33  40 CALM      30.37R
WILLIAMS       CLEAR     61  37  41 SE7       30.44R
PRESCOTT       CLEAR     75  41  29 S8        30.24R
FLAGSTAFF      CLEAR     65  37  35 CALM      30.40R
PAYSON         CLEAR     79  37  22 CALM      30.26R
PAGE           CLEAR     87  27  11 W3        30.13R
$$

AZZ009>014-017-220600-
NORTHEAST ARIZONA

CITY           SKY/WX    TMP DP  RH WIND       PRES   REMARKS
WINSLOW        NOT AVBL
SAINT JOHNS    MOCLDY    78  46  32 S9        30.25R
WINDOW ROCK    PTCLDY    73  33  23 CALM      30.35R
$$

AZZ023-220600-
GREATER PHOENIX AREA

CITY           SKY/WX    TMP DP  RH WIND       PRES   REMARKS
PHOENIX        CLEAR     97  47  18 SW6       29.89R
BUCKEYE          N/A     91  48  22 CALM      29.91R
DEER VALLEY    CLEAR     95  45  17 CALM      29.92R
SCOTTSDALE     CLEAR     95  48  20 CALM      29.94R
MESA-GATEWAY   CLEAR     95  41  15 W6        29.94R
$$

AZZ027-028-220600-
SOUTHWEST MARICOPA COUNTY AND PINAL COUNTY

CITY           SKY/WX    TMP DP  RH WIND       PRES   REMARKS
CASA GRANDE    CLEAR     91  45  19 CALM      29.94S
GILA BEND      CLEAR     95  48  20 CALM      29.90R
$$

AZZ503-504-507>509-220600-
SOUTHEAST ARIZONA

CITY           SKY/WX    TMP DP  RH WIND       PRES   REMARKS
TUCSON         PTCLDY    93  41  16 NW7       30.03S
DAVIS-MONTHAN  MOCLDY    91  44  19 W6        30.01F
NOGALES        PTCLDY    83  55  38 SE3       30.13R
SIERRA VISTA   PTCLDY    82  43  24 W10       30.20R
SAFFORD        PTCLDY    91  39  16 NW8       30.03R
$$

AZZ020-021-025-026-031-220600-
SOUTHWEST ARIZONA

CITY           SKY/WX    TMP DP  RH WIND       PRES   REMARKS
YUMA           NOT AVBL
$$

CAZ031-033-041-043-047-048-061-220600-
SOUTHERN CALIFORNIA

CITY           SKY/WX    TMP DP  RH WIND       PRES   REMARKS
DOWNTOWN L.A.  CLEAR     69  61  75 VRB3      29.99R
L.A. AIRPORT   CLEAR     68  62  81 SW12G17   30.00R
SAN DIEGO      PTCLDY    71  62  73 NW7       30.02R
BURBANK        CLEAR     72  60  66 SE5       30.00R
ONTARIO        CLEAR     72  59  63 SW7       30.01R
RIVERSIDE      CLEAR     73  59  61 W5        30.01R
PALM SPRINGS   CLEAR     93  55  27 NW15      29.89R
EL CENTRO NAS  CLEAR     93  45  19 W10       29.84R
IMPERIAL       CLEAR     89  47  23 W8        29.83R
BLYTHE         CLEAR     95  26   8 SW5       29.85R
$$

NVZ020-UTZ003-220600-
SOUTHERN NEVADA-UTAH

CITY           SKY/WX    TMP DP  RH WIND       PRES   REMARKS
LAS VEGAS      NOT AVBL
SALT LAKE CITY MOCLDY    82  36  19 W13G23    30.06R
$$

NMZ009-TXZ055-220600-
NEW MEXICO-WEST TEXAS

CITY           SKY/WX    TMP DP  RH WIND       PRES   REMARKS
ALBUQUERQUE    MOCLDY    81  46  29 SE6       30.21S
EL PASO        MOCLDY    83  55  38 NW7       30.10S
$$


........................KEY........................
SKY/WX - SKY CONDITION/WEATHER
TMP    - TEMPERATURE IN FAHRENHEIT
DP     - DEW POINT IN FAHRENHEIT
RH     - RELATIVE HUMIDITY IN PERCENT
WIND   - DIRECTION AND SPEED IN MILES PER HOUR (MPH)
VRB    - VARIABLE WIND DIRECTION
PRES   - MEAN SEA LEVEL PRESSURE IN INCHES OF MERCURY
         F - FALLING PRESSURE   R - RISING PRESSURE
         S - STEADY PRESSURE
VSB    - VISIBILITY IN MILES
HX     - HEAT INDEX IN FAHRENHEIT
WCI    - WIND CHILL INDEX IN FAHRENHEIT
TC     - TEMPERATURE IN CELSIUS WHICH IS ALSO KNOWN AS
         TEMPERATURE IN CENTIGRADE
AFB    - AIR FORCE BASE
         LUKE AFB IS LUKE AIR FORCE BASE
         DAVIS-MONTHAN IS DAVIS-MONTHAN AIR FORCE BASE
NAS    - NAVAL AIR STATION
         EL CENTRO NAS IS EL CENTRO NAVAL AIR STATION
N/A    - NOT AVAILABLE



USA.gov is the U.S. government's official web portal to all federal, state and local government web resources and services.